カタログに戻る

JITIANXING A-05 XING

運用中科学SSO
NORAD 62733·PAYLOAD·🇨🇳 China
この衛星名は、まだ公式ソースで確認されていません。

打ち上げ Jan 20, 2025 から Jiuquan Satellite Launch Center

Loading…

次のパス (今後24時間)

TLE

最新Source: Space-Track

元期: Sep 14, 2026, 22:22 UTC

1 62733U 25013E   26257.93203153  .00002843  00000-0  17136-3 0  9998
2 62733  97.6649  67.4332 0009894  73.2432 286.9883 15.11561759 90778

AllMySatでJITIANXING A-05 XINGをリアルタイム追跡

Download on the App Store